カタログに戻る

COSMOS 1275 DEB

運用中PO
NORAD 13808·DEBRIS·🇷🇺 Russia

打ち上げ Jun 4, 1981 から Plesetsk Cosmodrome

Loading…

次のパス (今後24時間)

TLE

最新Source: Space-Track

元期: Sep 14, 2026, 19:44 UTC

1 13808U 81053HC  26257.82249431  .00000918  00000-0  67269-3 0  9993
2 13808  83.0284 271.5895 0058050 226.1427 309.9626 13.94090158202779

AllMySatでCOSMOS 1275 DEBをリアルタイム追跡

Download on the App Store